Location: Griffin Ranch
(33.6186°N, 110.6622°W)
Time: 22:20:20
(UTC-07:00)

Cosmos 1812 - Visible Passes

Search period start: 27 February 2015 00:00
Search period end: 09 March 2015 00:00
Orbit: 529 x 535 km, 82.5° (Epoch: 27 February)

Date Brightness Start Highest point End Pass type
(mag) Time Alt. Az. Time Alt. Az. Time Alt. Az.
01 Mar 3.8 06:20:59 10° S 06:24:47 53° E 06:28:36 10° NNE visible
02 Mar 3.9 06:11:05 10° SSE 06:14:52 49° E 06:18:40 10° NNE visible
03 Mar 4.0 06:01:12 10° SSE 06:04:56 46° E 06:08:43 10° NNE visible
04 Mar 4.1 05:51:19 10° SSE 05:55:01 43° E 05:58:46 10° NNE visible
05 Mar 4.3 05:41:26 10° SSE 05:45:05 40° E 05:48:47 10° NNE visible
06 Mar 4.4 05:31:33 10° SSE 05:35:09 37° E 05:38:48 10° NNE visible
07 Mar 4.5 05:21:40 10° SSE 05:25:13 35° E 05:28:49 10° NNE visible
08 Mar 4.6 05:11:46 10° SSE 05:15:16 33° E 05:18:49 10° NNE visible
